Regional Weather Roundup
Issued by NWS

Home | Current Version | Previous Version | Graphics & Text | Print | Product List | Glossary On
Versions: 1 2 3 4 5 6 7 8 9 10 11 12 13 14 15 16 17 18 19 20 21 22 23 24 25 26 27 28 29 30 31 32 33 34 35 36 37 38 39 40 41 42 43 44 45 46 47 48 49 50
000
ASUS45 KCYS 270710
RWRWY

WYOMING REGIONAL WEATHER ROUNDUP
NATIONAL WEATHER SERVICE CHEYENNE WY
1200 AM MST THU NOV 27 2014

NOTE:  "FAIR" INDICATES FEW OR NO CLOUDS BELOW 12,000 FEET
WITH NO SIGNIFICANT WEATHER AND/OR OBSTRUCTIONS TO VISIBILITY.

WYZ001-270800-
YELLOWSTONE NATIONAL PARK

CITY           SKY/WX    TMP DP  RH WIND       PRES   REMARKS
LK YELLOWSTONE   N/A     32  28  85 CALM      30.27F
W YELLOWSTONE  NOT AVBL

$$
WYZ002>013-054>058-071-098>099-270800-
NORTHERN WYOMING

CITY           SKY/WX    TMP DP  RH WIND       PRES   REMARKS
JACKSON        MOCLDY    37  30  75 SW7       30.28R WCI  32
CODY           MOCLDY    21  19  93 S3        30.09F
GREYBULL       CLOUDY    22  22 100 SE5       30.17F FOG     WCI  16
WORLAND        CLOUDY    20  17  88 S3        30.16F FOG
SHERIDAN       CLOUDY    24  22  91 S5        30.11F FOG     WCI  18
BUFFALO        PTCLDY    22  17  81 NW3       30.09S
GILLETTE       PTCLDY    23  19  85 SE10      30.14R WCI  12
HULETT           N/A    N/A N/A N/A MISG        N/A
NEWCASTLE      FAIR      27  21  80 E7        30.20F WCI  19

$$
WYZ014>020-022>026-101>103-270800-
CENTRAL WYOMING

CITY           SKY/WX    TMP DP  RH WIND       PRES   REMARKS
BIG PINEY      PTCLDY   N/A N/A N/A E6        30.34F
PINEDALE       MOSUNNY   19  19 100 S3        30.35S
DUBOIS         FAIR      34  25  69 NW15G26   30.23F WCI  24
LANDER         PTCLDY    32  25  75 NW6       30.18S WCI  26
RIVERTON       PTCLDY    35  26  69 W12       30.19S WCI  27
CASPER         MOCLDY    38  28  67 MISG      30.18S
DOUGLAS        PTCLDY    15  12  88 CALM      30.19F

$$
WYZ021-027>030-104>119-270800-
SOUTHERN WYOMING

CITY           SKY/WX    TMP DP  RH WIND       PRES   REMARKS
EVANSTON       PTCLDY    33  22  63 SW13      30.38F WCI  24
FORT BRIDGER   FAIR      38  22  51 SW15      30.39F WCI  30
ROCK SPRINGS   PTCLDY    37  22  54 SW6       30.37R WCI  32
DIXON          FAIR      34  25  70 NW3       30.42S
RAWLINS        CLOUDY    39  24  55 W23G36    30.29F WCI  28
SARATOGA       FAIR      41  23  48 SW25G35   30.32R
LARAMIE        MOCLDY    35  24  64 S9        30.28R WCI  28
CHEYENNE       MOCLDY    40  26  57 W14       30.21S WCI  32
TORRINGTON     MOCLDY    21  19  92 N3        30.22S
PINE BLUFFS    FAIR      21  19  93 S13       30.24S WCI   9

$$


USA.gov is the U.S. government's official web portal to all federal, state and local government web resources and services.